Location: Chino
(34.0122°N, 117.6889°W)
Time: 14:25:58
(UTC+00:00)

Cosmos 2297 Rocket - Pass Details

Date: 13 February 2026
Orbit: 838 x 843 km, 71.0° (Epoch: 12 March)

Event Time Altitude Azimuth Distance (km) Brightness Sun altitude
Exits shadow 13:24:17 21° 251° (WSW) 1,805 3.4 -15.7°
Drops below altitude 10° 13:27:52 10° 212° (SSW) 2,447 4.4 -15.0°
Sets 13:30:51 0° 197° (SSW) 3,376 5.2 -14.3°
